Content
SEND FEEDBACK

Daily
Averages
Monthly
Summary
Switzerland

GENEVA, SWITZERLAND


Home > Europe > Switzerland
Elevation: 1364 feet     Latitude: 46 15N     Longitude: 006 08E

WEATHER
 
SELECT A DAY
Number of Records: 313,434;   Date Range: 7/1/96 - 10/24/14
 
SHARE

PRINT THIS DATA

[ ← Previous Day ]
WEATHER ALMANAC - APRIL 17, 2013
[ Next Day → ]
[ °C ]   °F
Weather ElementAverageHighLow
Temperature62.1 °F77 °F (5:20 pm)48 °F (6:00 am)
Dewpoint46.8 °F50 °F (9:20 pm)41 °F (6:20 pm)
Humidity58.1 %93 % (5:50 am)19 % (6:00 pm)
Barometer30.19 in30.27 in (6:00 am)30.06 in (7:00 pm)
Wind Speed3.2 mph9.2 mph (12:00 pm)
Weather ElementAverage
Visibility21.3 mi
Wind DirectionENE (81.6 °)

Weather ElementTotal
Precipitation---
Heating Degree Days2.5 (Base 65)
Growing Degree Days12.5 (Base 50)
Averaged from 64 records on April 17, 2013
WEATHER CONDITIONS BREAKOUT
WIND DIRECTION BREAKOUT
WEATHER BY HOUR - APRIL 17, 2013
[ °C ]   °F
Local TimeTemperatureDewpointHumidityBarometerVisibilityWind DirectionWind SpeedGust SpeedPrecipitationEventsConditions
12:20 AM57.2 °F48.2 °F72 %30.21 inVariable2.3 mphClear
12:50 AM55.4 °F48.2 °F77 %30.21 inVariable1.2 mphClear
1:00 AM57.0 °F47.0 °F60 %30.23 inNorth (10°)2.3 mph
1:20 AM57.2 °F48.2 °F72 %30.24 inVariable2.3 mphClear
1:50 AM55.4 °F48.2 °F77 %30.24 inVariable1.2 mphClear
2:00 AM55.0 °F47.0 °F68 %30.24 in19.0 miNW (320°)2.3 mphOvercast
2:20 AM53.6 °F48.2 °F82 %30.24 inNNW (330°)3.5 mphClear
2:50 AM53.6 °F48.2 °F82 %30.24 inVariable2.3 mphClear
3:00 AM55.0 °F47.0 °F67 %30.24 inNNE (30°)3.5 mph
3:50 AM51.8 °F48.2 °F88 %30.24 inVariable1.2 mphClear
4:00 AM51.0 °F45.0 °F74 %30.25 inWest (260°)1.2 mph
4:20 AM51.8 °F46.4 °F82 %30.24 inVariable2.3 mphClear
4:50 AM50.0 °F46.4 °F87 %30.24 inSW (230°)1.2 mphClear
5:20 AM50.0 °F46.4 °F87 %30.24 inWNW (290°)1.2 mphClear
5:50 AM48.2 °F46.4 °F93 %30.24 inCalmClear
6:00 AM48.0 °F45.0 °F84 %30.27 inWNW (300°)1.2 mph
6:20 AM48.2 °F44.6 °F87 %30.24 inCalmClear
6:50 AM48.2 °F44.6 °F87 %30.24 inVariable1.2 mphClear
7:00 AM49.0 °F44.0 °F78 %30.27 inNNW (340°)3.5 mph
7:20 AM48.2 °F44.6 °F87 %30.24 inVariable1.2 mphClear
7:50 AM51.8 °F46.4 °F82 %30.24 inCalmClear
8:00 AM51.0 °F47.0 °F80 %30.26 in22.0 miCalmClear
8:20 AM57.2 °F48.2 °F72 %30.24 inCalmClear
8:50 AM59.0 °F46.4 °F63 %30.24 inVariable1.2 mphClear
9:00 AM57.0 °F48.0 °F62 %30.25 inNorth (350°)1.2 mph
9:20 AM59.0 °F48.2 °F67 %30.24 inVariable1.2 mphClear
9:50 AM60.8 °F48.2 °F63 %30.24 inVariable3.5 mphClear
10:00 AM60.0 °F48.0 °F54 %30.24 inENE (60°)3.5 mph
10:20 AM62.6 °F48.2 °F59 %30.24 inNE (50°)3.5 mphClear
10:50 AM62.6 °F46.4 °F55 %30.24 inVariable2.3 mphClear
11:20 AM64.4 °F48.2 °F56 %30.24 inNorth (10°)4.6 mphClear
11:50 AM66.2 °F48.2 °F52 %30.24 inNNE (30°)5.8 mphClear
12:00 PM66.0 °F48.0 °F41 %30.22 inNE (50°)9.2 mph
12:20 PM66.2 °F48.2 °F52 %30.24 inNNE (30°)6.9 mphClear
12:50 PM68.0 °F48.2 °F49 %30.21 inENE (60°)6.9 mphClear
1:00 PM67.0 °F47.0 °F37 %30.19 inNE (50°)6.9 mph
1:20 PM69.8 °F48.2 °F46 %30.21 inENE (60°)6.9 mphClear
1:50 PM69.8 °F48.2 °F46 %30.21 inENE (60°)4.6 mphClear
2:00 PM69.0 °F47.0 °F34 %30.17 in19.0 miENE (70°)4.6 mphClear
2:20 PM69.8 °F46.4 °F43 %30.21 inEast (90°)5.8 mphClear
2:50 PM71.6 °F48.2 °F43 %30.18 inEast (80°)4.6 mphClear
3:00 PM71.0 °F48.0 °F33 %30.14 inENE (60°)4.6 mph
3:20 PM71.6 °F48.2 °F43 %30.18 inENE (70°)3.5 mphClear
3:50 PM73.4 °F48.2 °F41 %30.15 inENE (60°)4.6 mphClear
4:00 PM71.0 °F46.0 °F30 %30.12 inEast (100°)5.8 mph
4:20 PM73.4 °F48.2 °F41 %30.15 inENE (70°)5.8 mphClear
4:50 PM75.2 °F48.2 °F38 %30.15 inVariable2.3 mphClear
5:20 PM77.0 °F42.8 °F29 %30.12 inSW (220°)4.6 mphClear
5:50 PM77.0 °F42.8 °F29 %30.12 inSW (220°)6.9 mphClear
6:00 PM76.0 °F42.0 °F19 %30.07 inSW (220°)8.1 mph
6:20 PM77.0 °F41.0 °F28 %30.12 inSW (220°)6.9 mphClear
6:50 PM77.0 °F41.0 °F28 %30.12 inSW (230°)5.8 mphClear
7:00 PM74.0 °F44.0 °F23 %30.06 inSW (220°)5.8 mph
7:20 PM75.2 °F44.6 °F34 %30.12 inESE (120°)3.5 mphClear
7:50 PM71.6 °F46.4 °F41 %30.12 inVariable3.5 mphClear
8:00 PM69.0 °F46.0 °F33 %30.08 in25.0 miEast (80°)3.5 mphClear
8:20 PM68.0 °F48.2 °F49 %30.12 inVariable1.2 mphClear
8:50 PM64.4 °F48.2 °F56 %30.12 inVariable1.2 mphClear
9:00 PM62.0 °F49.0 °F51 %30.12 inEast (90°)3.5 mph
9:20 PM60.8 °F50.0 °F68 %30.12 inVariable1.2 mphClear
9:50 PM60.8 °F48.2 °F63 %30.12 inCalmClear
10:50 PM60.8 °F46.4 °F59 %30.15 inVariable1.2 mphClear
11:20 PM59.0 °F46.4 °F63 %30.15 inCalmClear
11:50 PM57.2 °F48.2 °F72 %30.15 inCalmClear
Hourly data recorded from LSGG, located miles away from Geneva, Switzerland







STORIES FROM OUR PARTNERS